DECAYED

STARLINK-2024, 47606 (Decayed)

Orbit data source: Space-Track

STARLINK-2024, 47606 was a payload satellite owned by SpaceX/Seattle (US) in LEO that was launched on Thu, 04 Feb 2021 UTC via an FALCON 9 launch vehicle from the Air Force Eastern Test Range (AFETR). Payload-class satellites include a variety of spacecraft equipped with specific instruments for various scientific and technological missions. These include communications satellites like Starlink; space stations such as the ISS; scientific satellites like the Hubble; Earth observation satellites from companies like Planet Labs, Umbra, and HawkEye 360; GPS; miniature CubeSats for education and research; and military/defense satellites.

Not visible in the next 10 days
Identifier
47606, 2021-009BL
Orbit
Decayed
Country
Flag of USUS
Related business
Manufacturer
SpaceX/Seattle
Mission
Decayed Commercial Communications
Bus & Motor
STARLINK, Unknown motor
Mass
260 kg wet, ~248 kg dry
Launch date (UTC)
2021-02-04 (5 years ago)
Launch vehicle
FALCON 9
Launch site
Air Force Eastern Test Range (AFETR)
Object type
Payload
Rocket body
Debris
Shape & HBR
Box + 1 Pan, 10.1 m
Radar Cross Section
13.562 m², Large (>1 m²)

Expand to show TLE details & history
Last TLE update: 4 months ago

TLE from 4 months ago
0 STARLINK-2024
1 47606U 21009BL  26055.10982186  .15234507  12591-4  19232-3 0  9997
2 47606  53.0191 355.3200 0003558 235.5484 124.5230 16.49438361279970
Epoch: 2026-02-24T02:38Z
TLE epoch observation values (Epoch: 2026-02-24T02:38:08.608Z)
Latitude
-0.00006°
Longitude
161.79003°
Altitude
143.06 km
Speed
7.821 km/s
True Right ascension
23h 41m 16s
True Declination
0° 00' 00"
Sunlit
Object was in daylight at epoch
Visualization orbit readout
Latitude
Unknown
Longitude
Unknown
Altitude
Unknown
Speed
Unknown
Apparent Right ascension
Unknown
Apparent Declination
Unknown
Sunlit
N/A
Visualization observer readout
Local Sidereal Time
21:41:50
Azimuth
Unknown
Elevation
Unknown
Doppler factor
Unknown
Orbital elements
Apogee altitude
143.428 km
Perigee altitude
138.789 km
Semi-major axis
6,519.245 km
Eccentricity
0.00036
Inclination
53.0191°
RAAN
355.32°
Arg. of periapsis
235.5484°
True anomaly
124.55658°
Mean anomaly
124.523°
Eccentric anomaly
124.53979°
Mean motion
4.12332 °/min
Orbital period
87.31 mins
BSTAR
0.00019232
Loading maneuver chart data...
Computing Atmospheric mass density...

Documentation

Showing up to 5 results
|